WZZ41 LHBP-EPWA

Flight info

Callsign WZZ41
Flight time 0h 47m
Altitude 24000
Route LITKU Y301 KALIF/N0436F370 DCT SUPAK DCT ORTEB/N0439F380 DCT KONZI DCT LOGDA
Aircraft A321/M-SDE1E2E3FGIJ1J4RWXY/LB1

Departure

Time 2026-05-07 11:19
Airport Budapest Liszt Ferenc International Airport (LHBP)

Arrival

Time 2026-05-07 12:06
Airport Warsaw Chopin Airport (EPWA)
Time Latitude Longitude Altitude Speed Heading
2026-05-07 10:59 47.43511 19.26478 458 ft 0 kts 222°
2026-05-07 11:10 47.43521 19.26493 456 ft 3 kts 230°
2026-05-07 11:10 47.43532 19.26516 458 ft 3 kts 249°
2026-05-07 11:10 47.43537 19.26543 458 ft 3 kts 278°
2026-05-07 11:11 47.43532 19.26565 456 ft 2 kts 310°
2026-05-07 11:11 47.43530 19.26569 453 ft 0 kts 312°
2026-05-07 11:13 47.43532 19.26567 456 ft 1 kts 312°
2026-05-07 11:13 47.43550 19.26536 455 ft 6 kts 312°
2026-05-07 11:13 47.43583 19.26484 458 ft 8 kts 312°
2026-05-07 11:14 47.43626 19.26415 458 ft 10 kts 312°
2026-05-07 11:14 47.43672 19.26322 458 ft 12 kts 292°
2026-05-07 11:14 47.43677 19.26191 458 ft 14 kts 268°
2026-05-07 11:14 47.43687 19.26058 457 ft 13 kts 297°
2026-05-07 11:15 47.43736 19.25947 456 ft 12 kts 276°
2026-05-07 11:15 47.43687 19.25848 457 ft 13 kts 222°
2026-05-07 11:15 47.43617 19.25754 457 ft 14 kts 222°
2026-05-07 11:15 47.43541 19.25651 457 ft 15 kts 222°
2026-05-07 11:16 47.43460 19.25543 457 ft 16 kts 222°
2026-05-07 11:16 47.43375 19.25429 457 ft 17 kts 222°
2026-05-07 11:16 47.43286 19.25308 457 ft 18 kts 222°
2026-05-07 11:16 47.43190 19.25181 457 ft 17 kts 222°
2026-05-07 11:17 47.43116 19.25081 458 ft 15 kts 222°
2026-05-07 11:17 47.43072 19.24999 457 ft 8 kts 273°
2026-05-07 11:17 47.43105 19.24932 458 ft 5 kts 312°
2026-05-07 11:17 47.43106 19.24931 458 ft 0 kts 312°
2026-05-07 11:18 47.43115 19.24916 458 ft 18 kts 312°
2026-05-07 11:18 47.43264 19.24676 456 ft 76 kts 312°
2026-05-07 11:18 47.43794 19.23821 455 ft 146 kts 313°
2026-05-07 11:18 47.44564 19.22591 840 ft 170 kts 307°
2026-05-07 11:19 47.45399 19.21275 1538 ft 182 kts 307°
2026-05-07 11:19 47.46298 19.19802 1963 ft 204 kts 306°
2026-05-07 11:19 47.47301 19.18135 2374 ft 230 kts 307°
2026-05-07 11:19 47.48430 19.16355 3065 ft 248 kts 311°
2026-05-07 11:20 47.49774 19.14596 3870 ft 264 kts 315°
2026-05-07 11:20 47.51225 19.12858 5022 ft 272 kts 317°
2026-05-07 11:20 47.52720 19.11101 6153 ft 276 kts 317°
2026-05-07 11:20 47.54229 19.09320 7128 ft 279 kts 317°
2026-05-07 11:21 47.55748 19.07508 8052 ft 282 kts 316°
2026-05-07 11:21 47.57274 19.05669 9009 ft 284 kts 316°
2026-05-07 11:21 47.58812 19.03799 9909 ft 287 kts 316°
2026-05-07 11:21 47.60388 19.01880 10440 ft 304 kts 318°
2026-05-07 11:22 47.62342 19.00369 10704 ft 334 kts 342°
2026-05-07 11:22 47.64714 19.00268 11294 ft 352 kts 10°
2026-05-07 11:22 47.66970 19.01753 12004 ft 360 kts 31°
2026-05-07 11:22 47.69070 19.03815 12799 ft 363 kts 33°
2026-05-07 11:23 47.71161 19.05963 13607 ft 368 kts 33°
2026-05-07 11:23 47.73264 19.08167 14285 ft 372 kts 34°
2026-05-07 11:23 47.75390 19.10398 14986 ft 375 kts 34°
2026-05-07 11:23 47.77537 19.12635 15703 ft 379 kts 34°
2026-05-07 11:24 47.79712 19.14887 16407 ft 382 kts 34°
2026-05-07 11:24 47.81907 19.17149 17116 ft 386 kts 34°
2026-05-07 11:24 47.84129 19.19436 17819 ft 390 kts 34°
2026-05-07 11:24 47.86368 19.21740 18470 ft 393 kts 34°
2026-05-07 11:25 47.88631 19.24065 19060 ft 397 kts 34°
2026-05-07 11:25 47.90916 19.26414 19652 ft 400 kts 34°
2026-05-07 11:25 47.93215 19.28789 20253 ft 404 kts 34°
2026-05-07 11:25 47.95535 19.31192 20847 ft 408 kts 34°
2026-05-07 11:26 47.97878 19.33618 21430 ft 412 kts 34°
2026-05-07 11:26 48.00242 19.36066 22030 ft 416 kts 34°
2026-05-07 11:26 48.02629 19.38540 22617 ft 420 kts 34°
2026-05-07 11:26 48.05037 19.41040 23192 ft 424 kts 34°
2026-05-07 11:27 48.07467 19.43565 23732 ft 427 kts 34°
2026-05-07 11:27 48.09921 19.46113 24204 ft 431 kts 34°
2026-05-07 11:27 48.12390 19.48680 24672 ft 434 kts 34°
2026-05-07 11:27 48.14875 19.51273 25121 ft 437 kts 34°
2026-05-07 11:28 48.17377 19.53891 25583 ft 440 kts 34°
2026-05-07 11:28 48.19964 19.56368 26037 ft 443 kts 26°
2026-05-07 11:28 48.22805 19.58157 26481 ft 444 kts 15°
2026-05-07 11:28 48.24157 19.58707 26676 ft 444 kts 10°
2026-05-07 11:29 48.26566 19.59271 26925 ft 443 kts
2026-05-07 11:29 48.29637 19.59237 27347 ft 442 kts 353°
2026-05-07 11:29 48.32711 19.58918 27792 ft 444 kts 353°
2026-05-07 11:29 48.35805 19.58607 28231 ft 447 kts 353°
2026-05-07 11:30 48.38920 19.58301 28672 ft 450 kts 352°
2026-05-07 11:30 48.42050 19.58000 29105 ft 453 kts 353°
2026-05-07 11:30 48.45166 19.57704 29521 ft 455 kts 352°
2026-05-07 11:30 48.48378 19.57408 29958 ft 458 kts 354°
2026-05-07 11:31 48.51547 19.57554 30295 ft 465 kts
2026-05-07 11:31 48.54801 19.58368 30638 ft 470 kts
2026-05-07 11:31 48.57980 19.59270 30972 ft 472 kts
2026-05-07 11:31 48.61262 19.60197 31306 ft 475 kts
2026-05-07 11:32 48.67756 19.62038 31917 ft 480 kts
2026-05-07 11:32 48.71033 19.62970 31985 ft 479 kts
2026-05-07 11:33 48.77586 19.64830 31988 ft 479 kts
2026-05-07 11:33 48.84182 19.66694 31989 ft 479 kts
2026-05-07 11:34 48.90740 19.68558 31989 ft 480 kts
2026-05-07 11:34 48.97302 19.70427 31985 ft 480 kts
2026-05-07 11:35 49.03862 19.72311 31986 ft 480 kts
2026-05-07 11:35 49.10429 19.74209 31984 ft 480 kts
2026-05-07 11:36 49.16996 19.76092 31979 ft 481 kts
2026-05-07 11:36 49.23573 19.77991 31966 ft 481 kts
2026-05-07 11:37 49.30089 19.80379 31971 ft 485 kts 19°
2026-05-07 11:37 49.36028 19.85324 31967 ft 488 kts 31°
2026-05-07 11:38 49.41786 19.90835 31965 ft 488 kts 31°
2026-05-07 11:38 49.47560 19.96301 31954 ft 487 kts 30°
2026-05-07 11:39 49.53330 20.01779 31959 ft 487 kts 31°
2026-05-07 11:39 49.59048 20.07254 31960 ft 489 kts 32°
2026-05-07 11:40 49.64858 20.12843 31956 ft 494 kts 32°
2026-05-07 11:40 49.70725 20.18509 31947 ft 494 kts 32°
2026-05-07 11:41 49.76566 20.24137 31953 ft 494 kts 32°
2026-05-07 11:41 49.82395 20.29781 31954 ft 494 kts 32°
2026-05-07 11:42 49.88215 20.35435 31946 ft 494 kts 32°
2026-05-07 11:42 49.94035 20.41101 31942 ft 494 kts 32°
2026-05-07 11:43 49.99846 20.46778 31951 ft 493 kts 32°
2026-05-07 11:43 50.05616 20.52439 31939 ft 493 kts 32°
2026-05-07 11:43 50.08650 20.54920 31942 ft 493 kts 21°
2026-05-07 11:44 50.11902 20.56583 31933 ft 492 kts 12°
2026-05-07 11:44 50.18662 20.57785 31939 ft 489 kts
2026-05-07 11:45 50.25510 20.58485 31943 ft 490 kts
2026-05-07 11:45 50.32312 20.59242 31927 ft 490 kts
2026-05-07 11:46 50.39123 20.59983 31933 ft 491 kts
2026-05-07 11:46 50.45935 20.60676 31937 ft 490 kts
2026-05-07 11:46 50.49315 20.61017 31578 ft 484 kts
2026-05-07 11:47 50.52666 20.61360 31084 ft 480 kts
2026-05-07 11:47 50.55984 20.61706 30586 ft 476 kts
2026-05-07 11:47 50.59278 20.62053 30097 ft 472 kts
2026-05-07 11:47 50.62542 20.62399 29552 ft 469 kts
2026-05-07 11:48 50.65782 20.62743 28992 ft 465 kts
2026-05-07 11:48 50.68999 20.63085 28445 ft 461 kts
2026-05-07 11:48 50.72143 20.63420 27918 ft 457 kts
2026-05-07 11:48 50.75345 20.63762 27379 ft 453 kts
2026-05-07 11:49 50.78438 20.64088 26872 ft 450 kts
2026-05-07 11:49 50.81591 20.64412 26357 ft 446 kts
2026-05-07 11:49 50.84679 20.64728 25860 ft 443 kts
2026-05-07 11:49 50.87742 20.65046 25368 ft 440 kts
2026-05-07 11:50 50.90787 20.65368 24887 ft 437 kts
2026-05-07 11:50 50.93812 20.65691 24405 ft 435 kts
2026-05-07 11:50 50.96824 20.66013 23944 ft 432 kts
2026-05-07 11:50 50.99816 20.66332 23482 ft 430 kts
2026-05-07 11:51 51.02793 20.66650 22937 ft 428 kts
2026-05-07 11:51 51.05718 20.66964 22411 ft 426 kts
2026-05-07 11:51 51.08669 20.67278 21884 ft 424 kts
2026-05-07 11:51 51.11603 20.67588 21366 ft 421 kts
2026-05-07 11:52 51.14518 20.67895 20863 ft 419 kts
2026-05-07 11:52 51.17420 20.68202 20364 ft 416 kts
2026-05-07 11:52 51.20296 20.68508 19868 ft 413 kts
2026-05-07 11:52 51.23155 20.68818 19382 ft 410 kts
2026-05-07 11:53 51.25991 20.69128 18906 ft 407 kts
2026-05-07 11:53 51.28790 20.69674 18438 ft 405 kts 11°
2026-05-07 11:53 51.31477 20.70994 17934 ft 402 kts 17°
2026-05-07 11:53 51.34118 20.72408 17403 ft 399 kts 17°
2026-05-07 11:54 51.36735 20.73814 16877 ft 395 kts 17°
2026-05-07 11:54 51.39326 20.75203 16361 ft 391 kts 17°
2026-05-07 11:54 51.41893 20.76580 15852 ft 387 kts 17°
2026-05-07 11:54 51.44432 20.77947 15379 ft 383 kts 17°
2026-05-07 11:55 51.46943 20.79298 14923 ft 378 kts 17°
2026-05-07 11:55 51.49419 20.80630 14495 ft 373 kts 17°
2026-05-07 11:55 51.51869 20.81945 14062 ft 369 kts 17°
2026-05-07 11:55 51.54287 20.83246 13634 ft 365 kts 17°
2026-05-07 11:56 51.56682 20.84538 13158 ft 361 kts 17°
2026-05-07 11:56 51.59056 20.85820 12687 ft 358 kts 17°
2026-05-07 11:56 51.61409 20.87094 12228 ft 355 kts 17°
2026-05-07 11:56 51.63743 20.88361 11754 ft 354 kts 17°
2026-05-07 11:57 51.66066 20.89624 11315 ft 351 kts 17°
2026-05-07 11:57 51.68364 20.90878 10874 ft 347 kts 17°
2026-05-07 11:57 51.70648 20.92105 10434 ft 345 kts 16°
2026-05-07 11:57 51.72913 20.93291 9950 ft 337 kts 15°
2026-05-07 11:58 51.75097 20.94423 9452 ft 323 kts 16°
2026-05-07 11:58 51.77136 20.95729 8917 ft 309 kts 28°
2026-05-07 11:58 51.78848 20.97744 8409 ft 303 kts 44°
2026-05-07 11:58 51.80295 21.00203 7906 ft 301 kts 46°
2026-05-07 11:59 51.81722 21.02659 7406 ft 298 kts 46°
2026-05-07 11:59 51.83136 21.05088 6923 ft 296 kts 46°
2026-05-07 11:59 51.84542 21.07505 6465 ft 293 kts 46°
2026-05-07 11:59 51.85936 21.09901 6093 ft 292 kts 46°
2026-05-07 12:00 51.86857 21.11485 5854 ft 291 kts 46°
2026-05-07 12:00 51.88305 21.13743 5547 ft 288 kts 36°
2026-05-07 12:00 51.90039 21.15312 5245 ft 284 kts 18°
2026-05-07 12:00 51.91941 21.16028 4946 ft 277 kts
2026-05-07 12:01 51.93781 21.15897 4695 ft 253 kts 345°
2026-05-07 12:01 51.95397 21.15088 4472 ft 239 kts 332°
2026-05-07 12:01 51.96860 21.13850 4216 ft 235 kts 328°
2026-05-07 12:01 51.98240 21.12659 4040 ft 216 kts 328°
2026-05-07 12:02 51.99564 21.11511 3883 ft 215 kts 328°
2026-05-07 12:02 52.00868 21.10381 3628 ft 207 kts 328°
2026-05-07 12:02 52.02099 21.09316 3392 ft 196 kts 327°
2026-05-07 12:02 52.03279 21.08292 3119 ft 190 kts 327°
2026-05-07 12:03 52.04419 21.07302 2897 ft 180 kts 328°
2026-05-07 12:03 52.05500 21.06363 2638 ft 171 kts 328°
2026-05-07 12:03 52.06528 21.05470 2409 ft 164 kts 328°
2026-05-07 12:03 52.07518 21.04609 2182 ft 156 kts 330°
2026-05-07 12:04 52.08416 21.03828 1976 ft 139 kts 330°
2026-05-07 12:04 52.09251 21.03101 1792 ft 134 kts 332°
2026-05-07 12:04 52.10066 21.02391 1620 ft 133 kts 332°
2026-05-07 12:04 52.10877 21.01684 1451 ft 132 kts 332°
2026-05-07 12:05 52.11686 21.00982 1250 ft 132 kts 332°
2026-05-07 12:05 52.12497 21.00276 1074 ft 133 kts 331°
2026-05-07 12:05 52.13300 20.99574 872 ft 131 kts 330°
2026-05-07 12:05 52.14101 20.98877 659 ft 131 kts 330°
2026-05-07 12:06 52.14903 20.98175 503 ft 131 kts 330°
2026-05-07 12:06 52.15701 20.97477 362 ft 130 kts 330°
2026-05-07 12:06 52.16403 20.96861 339 ft 92 kts 331°
2026-05-07 12:06 52.16787 20.96541 338 ft 37 kts 341°
2026-05-07 12:07 52.16957 20.96512 336 ft 12 kts
2026-05-07 12:07 52.17039 20.96517 336 ft 10 kts
2026-05-07 12:07 52.17096 20.96591 339 ft 12 kts 60°
2026-05-07 12:07 52.17132 20.96695 335 ft 3 kts 61°
2026-05-07 12:08 52.17147 20.96740 337 ft 6 kts 61°
2026-05-07 12:08 52.17162 20.96813 336 ft 8 kts 89°
2026-05-07 12:08 52.17120 20.96873 338 ft 10 kts 153°
2026-05-07 12:08 52.17055 20.96930 334 ft 10 kts 151°
2026-05-07 12:09 52.17025 20.96985 333 ft 7 kts 91°
2026-05-07 12:09 52.17038 20.97060 336 ft 6 kts 71°
2026-05-07 12:09 52.17045 20.97090 337 ft 1 kts 70°
2026-05-07 12:09 52.17047 20.97097 338 ft 0 kts 70°